11h15 EST


 

Suivi/Infos de l'aéroport


-ou-


 

Suivi des vols en temps réel9Y-TTC ✈ 01-05-2013 ✈ TTCP / TAB - TTPP / POS

Thumbnail
9Y-TTC / BWA1541
Unknown Owner · Trinidad & Tobago
Crown Point ( – info)
Scarborough, Tobago TT
Piarco Int'l ( – info)
Port-d'Espagne TT
Prévu: 21h45 AST
Prévu: 21h50 AST
Durée: 18 minutes
mercredi, 1 mai 2013
Statut Arrivé il y a plus d'un an. (journal de vol & graphique)
Avion Aerospatiale ATR-42-300 (bi-turbopropulseur) (AT43 – photos)
Vitesse Plan de vol: 532 kts (graphique)
Distance En ligne droite 83 km
Une partie au moins de ce vol se déroule hors de la zone de services primaire de FlightAware. Pour en savoir plus sur la couverture et la zone de services de FlightAware.
JOURNAL DE L'ACTIVITE
Vous voulez une recherche complète sur l'historique de 9Y-TTC depuis 1998? Achetez maintenant. Recevez-le dans l'heure.
Date Avion Provenance Destination Départ Arrivée Durée
23-11-2014 AT72Piarco Int'l ()Crown Point () 12h03 AST 12h17 AST En vol
23-11-2014 AT72Crown Point ()Piarco Int'l () 11h05 AST 11h20 AST 0:15
23-11-2014 AT72Piarco Int'l ()Crown Point () 10h09 AST 10h24 AST 0:14
23-11-2014 AT72Crown Point ()Piarco Int'l () 09h01 AST 09h17 AST 0:16
23-11-2014 AT72Piarco Int'l ()Crown Point () 08h09 AST 08h24 AST 0:15
23-11-2014 AT72Crown Point ()Piarco Int'l () 07h10 AST 07h27 AST 0:17
23-11-2014 AT72Piarco Int'l ()Crown Point () 06h16 AST 06h31 AST 0:14
22-11-2014 AT72Crown Point ()Piarco Int'l () 13h06 AST 13h22 AST 0:16
22-11-2014 AT72Piarco Int'l ()Crown Point () 12h16 AST 12h35 AST 0:19
22-11-2014 AT72Crown Point ()Piarco Int'l () 11h13 AST 11h31 AST 0:18
22-11-2014 AT72Piarco Int'l ()Crown Point () 10h07 AST 10h25 AST 0:18
22-11-2014 AT72Crown Point ()Piarco Int'l () 09h02 AST 09h20 AST 0:18
22-11-2014 AT72Piarco Int'l ()Crown Point () 08h11 AST 08h29 AST 0:18
22-11-2014 AT72Crown Point ()Piarco Int'l () 07h01 AST 07h20 AST 0:19
22-11-2014 AT72Piarco Int'l ()Crown Point () 06h10 AST 06h27 AST 0:17
21-11-2014 AT72Piarco Int'l ()Crown Point () 15h47 AST 16h06 AST 0:18
21-11-2014 AT72Crown Point ()Piarco Int'l () 12h55 AST 13h07 AST 0:11
21-11-2014 AT72Piarco Int'l ()Crown Point () 11h48 AST 12h05 AST 0:16
21-11-2014 AT72Crown Point ()Piarco Int'l () 10h51 AST 11h08 AST 0:16
21-11-2014 AT72Piarco Int'l ()Crown Point () 09h53 AST 10h10 AST 0:16
21-11-2014 AT72Crown Point ()Piarco Int'l () 08h53 AST 09h09 AST 0:15
21-11-2014 AT72Piarco Int'l ()Crown Point () 07h54 AST 08h13 AST 0:19
21-11-2014 AT72Crown Point ()Piarco Int'l () 06h50 AST 07h09 AST 0:19
21-11-2014 AT72Piarco Int'l ()Crown Point () 05h50 AST 06h14 AST 0:24
20-11-2014 AT72Crown Point ()Piarco Int'l () 19h31 AST 19h49 AST 0:18
20-11-2014 AT72Piarco Int'l ()Crown Point () 18h35 AST 18h50 AST 0:14
20-11-2014 AT72Crown Point ()Piarco Int'l () 17h20 AST 17h41 AST 0:21
20-11-2014 AT72Piarco Int'l ()Crown Point () 16h23 AST 16h38 AST 0:14
20-11-2014 AT72Crown Point ()Piarco Int'l () 15h29 AST 15h41 AST 0:11
20-11-2014 AT72Piarco Int'l ()Crown Point () 14h36 AST 14h51 AST 0:14
20-11-2014 AT72Crown Point ()Piarco Int'l () 13h14 AST 13h34 AST 0:20
20-11-2014 AT72Piarco Int'l ()Crown Point () 12h27 AST 12h44 AST 0:16
20-11-2014 AT72Crown Point ()Piarco Int'l () 11h21 AST 11h34 AST 0:12
20-11-2014 AT72Piarco Int'l ()Crown Point () 10h19 AST 10h36 AST 0:16
20-11-2014 AT72Crown Point ()Piarco Int'l () 09h09 AST 09h28 AST 0:19
20-11-2014 AT72Piarco Int'l ()Crown Point () 08h11 AST 08h29 AST 0:17
20-11-2014 AT72Crown Point ()Piarco Int'l () 07h09 AST 07h26 AST 0:17
20-11-2014 AT72Piarco Int'l ()Crown Point () 06h14 AST 06h30 AST 0:15
19-11-2014 AT72Crown Point ()Piarco Int'l () 19h20 AST 19h38 AST 0:18
19-11-2014 AT72Piarco Int'l ()Crown Point () 18h33 AST 18h49 AST 0:15
19-11-2014 AT72Crown Point ()Piarco Int'l () 17h30 AST 17h48 AST 0:18
19-11-2014 AT72Piarco Int'l ()Crown Point () 16h38 AST 16h56 AST 0:17
19-11-2014 AT72Crown Point ()Piarco Int'l () 15h25 AST 15h43 AST 0:18
19-11-2014 AT72Piarco Int'l ()Crown Point () 14h34 AST 14h51 AST 0:16
18-11-2014 AT72Point Salines Int'l ()Piarco Int'l () 20h24 AST 20h44 AST 0:20
18-11-2014 AT72Piarco Int'l ()Point Salines Int'l () 18h56 AST 19h25 AST 0:28
18-11-2014 AT72Crown Point ()Piarco Int'l () 16h21 AST 16h35 AST 0:13
18-11-2014 AT72Piarco Int'l ()Crown Point () 15h26 AST 15h53 AST 0:26
18-11-2014 AT72Crown Point ()Piarco Int'l () 14h29 AST 14h42 AST 0:12
18-11-2014 AT72Piarco Int'l ()Crown Point () 13h34 AST 13h50 AST 0:15
18-11-2014 AT72Crown Point ()Piarco Int'l () 11h40 AST 12h06 AST 0:26
18-11-2014 AT72Piarco Int'l ()Crown Point () 10h46 AST 11h04 AST 0:17
18-11-2014 AT72Crown Point ()Piarco Int'l () 09h02 AST 09h44 AST 0:42
18-11-2014 AT72Piarco Int'l ()Crown Point () 08h12 AST 08h31 AST 0:19
18-11-2014 AT72Crown Point ()Piarco Int'l () 07h14 AST 07h32 AST 0:18
18-11-2014 AT72Piarco Int'l ()Crown Point () 06h23 AST 06h40 AST 0:16
17-11-2014 AT72Crown Point ()Piarco Int'l () 22h53 AST 23h15 AST 0:22
17-11-2014 AT72Piarco Int'l ()Crown Point () 22h03 AST 22h20 AST 0:16
17-11-2014 AT72Crown Point ()Piarco Int'l () 18h31 AST 18h51 AST 0:19
17-11-2014 AT72Piarco Int'l ()Crown Point () 17h27 AST 17h44 AST 0:16
17-11-2014 AT72Crown Point ()Piarco Int'l () 01h32 AST 01h46 AST 0:14
17-11-2014 AT72Piarco Int'l ()Crown Point () 00h45 AST 00h59 AST 0:13
17-11-2014 AT72Crown Point ()Piarco Int'l () 00h00 AST 00h15 AST 0:15
16-11-2014 AT72Piarco Int'l ()Crown Point () 23h15 AST 23h29 AST 0:13
16-11-2014 AT72Crown Point ()Piarco Int'l () 22h18 AST 22h34 AST 0:16
16-11-2014 AT72Piarco Int'l ()Crown Point () 21h31 AST 21h45 AST 0:13
16-11-2014 AT72Crown Point ()Piarco Int'l () 20h24 AST 20h34 AST 0:09
16-11-2014 AT72Piarco Int'l ()Crown Point () 19h29 AST 19h45 AST 0:15
16-11-2014 AT72Crown Point ()Piarco Int'l () 18h29 AST 18h46 AST 0:17
16-11-2014 AT72Piarco Int'l ()Crown Point () 17h44 AST 17h53 AST (?) 0:09
16-11-2014 AT72Crown Point ()Piarco Int'l () 16h46 AST 17h03 AST 0:17
16-11-2014 AT72Piarco Int'l ()Crown Point () 15h55 AST 16h11 AST 0:16
16-11-2014 AT72Crown Point ()Piarco Int'l () 14h12 AST 14h22 AST 0:09
16-11-2014 AT72Piarco Int'l ()Crown Point () 13h25 AST 13h37 AST 0:11
16-11-2014 AT72Crown Point ()Piarco Int'l () 12h15 AST 12h39 AST 0:24
16-11-2014 AT72Piarco Int'l ()Crown Point () 10h41 AST 11h03 AST 0:22
16-11-2014 AT72Crown Point ()Piarco Int'l () 09h36 AST 09h57 AST 0:21
16-11-2014 AT72Piarco Int'l ()Crown Point () 08h36 AST 08h50 AST 0:13
16-11-2014 AT72Crown Point ()Piarco Int'l () 07h20 AST 07h40 AST 0:20
16-11-2014 AT72Piarco Int'l ()Crown Point () 06h35 AST 06h50 AST 0:14
15-11-2014 AT72Crown Point ()Piarco Int'l () 20h19 AST 20h37 AST 0:18
15-11-2014 AT72Piarco Int'l ()Crown Point () 19h30 AST 19h44 AST 0:13
15-11-2014 AT72Crown Point ()Piarco Int'l () 18h28 AST 18h47 AST 0:19
15-11-2014 AT72Piarco Int'l ()Crown Point () 17h38 AST 17h55 AST 0:17
15-11-2014 AT72Crown Point ()Piarco Int'l () 16h26 AST 16h43 AST 0:17
15-11-2014 AT72Piarco Int'l ()Crown Point () 15h37 AST 15h50 AST 0:12
15-11-2014 AT72Crown Point ()Piarco Int'l () 14h41 AST 14h57 AST 0:16
15-11-2014 AT72Piarco Int'l ()Crown Point () 13h50 AST 14h09 AST 0:19
15-11-2014 AT72Crown Point ()Piarco Int'l () 12h43 AST 12h49 AST 0:05
15-11-2014 AT72Piarco Int'l ()Crown Point () 11h45 AST 11h59 AST 0:13
15-11-2014 AT72Crown Point ()Piarco Int'l () 10h44 AST 11h00 AST 0:16
15-11-2014 AT72Piarco Int'l ()Crown Point () 09h43 AST 09h57 AST 0:13
15-11-2014 AT72Crown Point ()Piarco Int'l () 08h31 AST 08h50 AST 0:19
15-11-2014 AT72Piarco Int'l ()Crown Point () 07h43 AST 07h59 AST 0:15
15-11-2014 AT72Crown Point ()Piarco Int'l () 06h48 AST 07h02 AST 0:14
15-11-2014 AT72Piarco Int'l ()Crown Point () 05h54 AST 06h08 AST 0:13
14-11-2014 AT72Point Salines Int'l ()Piarco Int'l () 20h24 AST 20h51 AST 0:27
14-11-2014 AT72Piarco Int'l ()Point Salines Int'l () 18h58 AST 19h26 AST 0:27
14-11-2014 AT72Crown Point ()Piarco Int'l () 17h57 AST 18h13 AST 0:16
Les membres inscrits (l'inscription est gratuite et facile!) voient 4 months d'historique. S'inscrire